SCP
0 0 0 0 0 0 0 0 0 0 -0 0 0 0 0 0 0 0 -0 0 0 0 0 0 0 0 0 0 0 0 0 -0 0 0 -0 0 0 -0 -0 -0 -0 0 0 0 0
0 0 0 0 0 0 0 0 0 -0 -0 -0 0 0 0 0 0 -0 0 0 0 0 0 -0 -0 -0 0 0 0 0 -0 0 -0 0 -0 -0 -0 -0 -0 -0 -0 -0 0 0 0
0 0 0 0 0 0 0 0 0 -0 -0 -0 0 0 0 0 0 0 0 0 0 0 0 0 0 0 0 0 0 -0 0 -0 -0 -0 -0 -0 -0 0 0 -0 -0 0 0 0 0
0 0 0 0 0 -0 0 0 -0 -0 -0 -0 0 0 0 0 0 0 -0 0 0 0 0 0 0 0 0 -0 0 -0 -0 -0 -0 -0 -0 -0 -0 -0 -0 0 0 0 0 0 0
0 0 0 0 0 -0 0 0 -0 -0 0 0 0 0 0 0 0 0 0 0 0 0 0 0 -0 0 -0 -0 -0 -0 -0 -0 -0 -0 -0 -0 -0 -0 -0 0 0 0 0 0 0
0 0 0 -0 -0 -0 0 0 -0 0 0 0 0 0 0 -0 0 0 0 0 0 0 0 0 0 -0 -0 -0 -0 -0 -0 -0 -0 -0 -0 -0 -0 0 0 0 0 0 0 0 0
0 0 0 -0 0 -0 0 0 0 0 0 0 0 0 -0 -0 0 0 0 0 0 0 0 0 0 0 -0 -0 -0 -0 -0 -0 0 0 -0 0 -0 0 0 0 0 0 0 0 0
0 -0 -0 -0 -0 -0 -0 -0 -0 0 0 0 0 0 0 0 0 -0 0 0 -0 -0 0 0 -0 -0 -0 -0 -0 0 0 0 0 0 0 0 0 0 0 0 0 0 0 0 0
0 0 0 0 -0 -0 0 0 0 0 0 0 0 0 0 0 0 -0 -0 0 0 0 -0 0 -0 -0 -0 -0 0 0 0 0 0 0 0 0 0 0 0 0 0 0 0 0 0
0 0 0 0 0 0 0 0 0 0 0 0 0 0 0 0 0 -0 -0 -0 0 0 0 0 -0 -0 -0 0 0 0 0 0 0 0 0 0 0 0 0 0 0 0 0 0 0
0 0 0 -0 0 0 0 -0 0 -0 -0 -0 -0 -0 0 0 0 -0 -0 -0 0 0 -0 -0 -0 -0 0 0 0 0 0 0 0 0 0 0 0 0 0 0 0 0 0 0 0
0 0 0 0 0 0 0 0 0 0 -0 0 -0 0 0 0 -0 -0 -0 -0 0 -0 0 0 -0 0 0 0 0 0 0 0 0 0 0 0 0 0 0 0 0 0 0 0 0
0 0 0 0 0 0 0 0 -0 -0 0 0 -0 0 -0 -0 0 -0 -0 0 -0 -0 -0 -0 0 0 0 0 0 0 0 0 0 0 0 0 0 0 0 0 0 0 0 0 0
0 0 0 0 0 0 0 0 -0 -0 -0 -0 -0 -0 -0 -0 0 0 -0 -0 0 0 0 0 0 0 0 0 0 0 0 0 0 0 0 0 0 0 0 0 0 0 0 0 0
0 0 0 0 -0 -0 -0 0 0 0 0 -0 0 0 -0 0 -0 -0 -0 0 0 0 0 0 0 0 0 0 0 0 0 0 0 0 0 0 0 0 0 0 0 0 0 0 0
0 0 0 0 0 0 0 0 0 0 -0 -0 0 0 0 -0 0 -0 0 0 0 0 0 0 0 0 0 0 0 0 0 0 0 0 0 0 0 0 0 0 0 0 0 0 0
0 0 0 0 0 0 0 0 0 -0 -0 0 -0 -0 0 0 0 -0 0 0 0 0 0 0 0 0 0 0 0 0 0 0 0 0 0 0 0 0 0 0 0 0 0 0 0
0 0 0 0 0 0 0 -0 0 -0 -0 -0 0 0 0 0 0 0 0 0 0 0 0 0 0 0 0 0 0 0 0 0 0 0 0 0 0 0 0 0 0 0 0 0 0
0 0 0 0 0 0 0 0 -0 -0 -0 -0 0 0 0 0 0 0 0 0 0 0 0 0 0 0 0 0 0 0 0 0 0 0 0 0 0 0 0 0 0 0 0 0 0
0 0 0 0 0 0 0 -0 -0 -0 -0 -0 -0 -0 0 0 0 0 0 0 0 0 0 0 0 0 0 0 0 0 0 0 0 0 0 0 0 0 0 0 0 0 0 0 0
0 0 0 0 0 0 0 -0 -0 0 0 0 0 0 0 0 0 0 0 0 0 0 0 0 0 0 0 0 0 0 0 0 0 0 0 0 0 0 0 0 0 0 0 0 0
0 0 0 0 0 0 0 0 0 0 0 0 0 0 0 0 0 0 0 0 0 0 0 0 0 0 0 0 0 0 0 0 0 0 0 0 0 0 0 0 0 0 0 0 0
0 0 0 0 0 0 0 -0 0 0 0 0 0 0 0 0 0 0 0 0 0 0 0 0 0 0 0 0 0 0 0 0 0 0 0 0 0 0 0 0 0 0 0 0 0
0 0 0 0 0 0 0 0 -0 0 0 0 0 0 0 0 0 0 0 0 0 0 0 0 0 0 0 0 0 0 0 0 0 0 0 0 0 0 0 0 0 0 0 0 0
0 0 0 0 0 0 0 0 -0 -0 0 0 0 0 0 0 0 0 0 0 0 0 0 0 0 0 0 0 0 0 0 0 0 0 0 0 0 0 0 0 0 0 0 0 0
0 0 0 0 0 0 0 0 -0 0 0 0 0 0 0 0 0 0 0 0 0 0 0 0 0 0 0 0 0 0 0 0 0 0 0 0 0 0 0 0 0 0 0 0 0
0 0 0 0 0 0 0 0 0 -0 0 0 0 0 0 0 0 0 0 0 0 0 0 0 0 0 0 0 0 0 0 0 0 0 0 0 0 0 0 0 0 0 0 0 0
Wind_Speed_500mb
12 12 15 18 22 24 22 24 30 35 39 35 38 40 38 33 30 26 32 27 26 23 21 20 17 24 31 30 23 17 10 17 10 9 16 6 14 38 45 60 66 38 37 26 29
11 11 14 17 22 24 25 31 37 41 41 41 38 34 34 39 37 42 30 24 22 21 20 22 24 21 19 15 14 14 17 13 14 22 27 32 37 24 27 41 45 43 37 33 34
10 12 14 19 24 26 31 37 39 37 34 26 17 13 11 11 22 24 24 22 21 20 20 19 24 22 28 24 16 17 13 27 40 52 55 60 55 15 9 32 34 34 32 33 40
10 13 14 24 28 31 36 39 35 30 22 18 18 17 10 8 8 14 19 20 20 20 19 18 13 13 14 17 16 20 24 23 22 23 24 33 35 58 49 30 26 28 30 35 43
8 11 21 31 32 36 40 38 33 27 26 25 25 28 28 30 18 14 17 17 17 15 17 21 21 18 16 28 52 40 36 44 53 55 52 51 44 41 40 26 25 28 33 39 41
12 17 29 35 36 39 40 36 30 32 30 33 27 21 22 43 19 18 20 19 17 20 25 21 20 30 25 19 18 45 64 54 35 33 29 40 32 11 23 19 25 30 34 36 40
19 27 36 38 40 42 39 31 29 36 38 26 18 37 46 22 20 17 18 20 23 22 22 25 17 10 21 45 56 60 40 36 12 12 43 17 31 20 14 19 27 28 28 31 36
29 35 38 40 43 42 33 36 47 28 25 22 26 26 20 24 19 15 19 18 19 17 26 24 34 31 15 48 25 14 15 10 20 12 3 18 10 13 11 16 24 25 28 30 36
33 36 41 46 45 45 48 37 30 20 17 13 13 18 12 15 21 17 12 18 23 25 23 18 30 28 29 19 11 9 2 8 12 17 9 8 19 17 12 15 22 24 28 29 31
36 42 49 51 47 40 33 29 18 14 12 10 12 13 14 13 19 15 12 11 6 7 7 14 13 14 9 9 4 5 8 8 5 12 20 22 25 21 13 14 21 23 28 34 37
41 47 49 43 40 39 37 28 16 22 56 26 22 20 12 17 29 17 9 12 9 15 10 18 15 17 13 12 7 6 7 9 8 7 6 14 23 19 13 14 18 22 27 32 37
42 45 43 40 42 33 17 9 13 26 28 35 32 22 32 12 10 32 13 5 9 9 3 12 23 11 7 7 7 8 6 5 7 8 4 18 17 15 10 10 14 18 24 30 38
40 40 39 39 33 10 15 31 28 18 11 16 26 24 17 24 18 29 17 12 22 27 25 20 10 11 10 14 7 3 4 4 12 12 6 19 13 21 15 8 6 13 18 26 36
37 35 36 32 20 19 37 21 7 6 5 17 15 17 20 5 11 31 19 7 8 10 10 15 11 8 6 9 9 9 3 17 12 17 6 17 5 23 18 9 1 11 22 30 34
35 34 32 24 12 21 20 9 4 4 2 12 9 8 27 14 5 26 26 21 14 8 6 7 8 14 11 7 10 9 9 1 12 12 8 15 10 12 17 12 6 17 25 32 34
33 33 29 14 16 23 17 2 4 7 7 4 8 11 3 20 11 15 12 18 9 11 25 9 3 6 10 8 5 11 3 8 9 7 9 9 8 13 11 6 6 18 27 34 36
29 29 26 16 8 22 13 7 6 5 1 4 6 6 10 15 10 20 13 23 9 1 6 4 7 4 10 7 5 21 10 5 5 6 8 9 10 8 15 6 12 22 32 35 34
24 24 23 17 13 20 10 5 4 3 1 3 2 8 7 12 9 11 4 7 19 8 6 7 6 12 18 9 8 11 11 8 13 13 16 6 8 9 13 7 9 20 29 31 35
23 23 20 18 21 19 4 1 5 4 5 9 5 2 4 3 3 4 12 6 10 17 7 6 3 3 8 12 7 6 5 6 11 4 8 2 7 10 11 2 16 26 35 35 35
23 20 18 20 21 15 3 7 4 2 3 2 1 3 2 5 2 2 3 4 3 9 7 3 4 3 2 4 14 6 4 5 1 13 17 8 8 4 15 9 22 31 36 37 36
23 10 16 23 19 6 4 7 6 3 2 3 4 6 5 3 4 3 4 4 1 2 4 1 3 5 4 2 5 3 2 5 5 6 9 14 9 11 9 11 20 31 33 35 33
7 5 22 24 6 7 5 7 7 6 5 4 6 6 3 3 4 4 3 4 2 1 2 3 3 7 1 6 4 2 2 4 6 3 6 8 7 19 11 16 19 31 33 35 26
8 10 15 12 5 6 5 6 6 5 4 3 5 4 3 4 2 2 4 4 1 2 2 3 2 7 8 7 6 6 5 2 2 4 20 8 9 13 8 18 28 34 37 32 32
8 7 5 3 11 14 11 8 7 5 5 7 7 5 5 4 5 7 6 3 1 2 6 1 4 8 11 9 4 8 10 13 11 8 6 21 28 3 17 21 34 31 33 29 34
7 5 9 7 6 13 7 7 11 7 4 3 5 2 4 5 4 5 5 6 3 3 1 1 6 6 17 13 9 14 17 18 25 22 14 9 15 23 12 24 29 28 25 29 38
9 11 11 9 17 18 1 7 10 7 3 4 4 7 4 2 3 4 10 9 2 6 2 1 2 5 8 2 8 13 20 21 23 25 29 31 26 5 16 23 30 31 22 33 36
10 17 10 5 9 6 6 11 12 21 6 5 11 9 7 4 7 12 10 11 9 4 6 3 2 5 7 4 17 14 11 20 8 11 11 13 10 10 19 28 29 19 20 32 33
Wind_Direction_500mb
95 102 99 107 110 107 105 115 121 118 115 110 104 100 94 90 85 81 71 74 68 66 66 63 78 89 74 68 64 73 108 90 80 98 130 124 85 69 74 73 66 71 65 47 33
101 112 107 113 113 109 110 116 119 120 117 112 106 101 99 89 79 68 68 68 58 63 70 81 79 80 76 52 45 72 87 57 48 94 107 85 86 91 87 64 61 59 53 47 40
104 122 121 128 126 124 119 120 122 124 119 116 105 101 114 102 68 34 64 63 62 65 72 85 89 81 73 68 44 32 82 98 83 102 100 92 74 90 77 53 51 52 43 41 41
110 128 132 140 138 127 125 124 121 119 110 96 100 90 102 120 70 41 62 65 68 64 75 83 87 75 79 74 72 99 58 94 101 107 97 79 91 74 73 84 68 61 55 47 40
106 129 144 144 139 132 131 125 119 110 99 101 105 102 91 87 66 65 66 69 67 69 98 95 81 83 93 105 88 88 88 89 106 99 96 102 85 85 70 73 70 64 57 49 43
105 134 140 142 140 133 132 127 115 110 106 100 91 93 81 76 60 74 73 71 75 76 80 91 89 101 78 45 45 115 111 115 110 101 101 96 69 69 63 79 76 64 54 47 40
110 130 138 140 136 131 127 122 119 115 112 101 70 82 78 57 67 83 80 77 75 81 84 83 116 87 95 95 118 121 115 123 130 110 134 93 54 77 83 82 68 62 53 44 37
117 128 132 133 132 127 124 122 122 108 95 90 73 76 76 60 67 101 92 78 83 74 69 100 97 97 85 125 142 142 160 159 59 175 311 201 118 99 91 89 70 58 48 40 31
122 128 129 130 129 129 126 122 119 105 88 91 70 84 68 60 70 79 97 99 90 76 73 79 94 94 129 158 156 182 129 126 134 22 198 218 143 136 121 100 75 57 46 36 26
126 130 132 128 126 129 125 120 104 106 94 55 69 92 50 30 45 52 92 124 103 87 64 47 69 115 88 235 322 137 156 110 165 61 85 112 128 131 118 91 69 52 40 29 20
131 134 136 130 129 124 122 118 99 75 72 73 70 75 59 72 47 44 114 95 77 62 67 36 78 59 15 355 7 101 121 129 126 121 78 124 140 139 119 85 60 42 28 19 13
139 140 140 139 134 131 136 136 139 126 81 68 65 60 46 64 61 50 98 59 37 80 42 109 59 18 14 31 141 135 127 90 118 132 220 158 159 156 157 88 56 30 21 10 1
146 146 146 146 147 130 145 130 122 113 89 38 41 36 29 51 46 7 41 57 66 65 66 75 24 1 30 62 139 128 319 205 312 149 90 162 200 189 176 161 50 26 9 1 360
154 154 154 157 151 120 132 130 119 143 125 14 6 23 4 66 57 21 28 56 61 92 67 66 38 39 68 69 331 249 62 300 202 190 318 204 304 192 179 172 294 354 357 354 349
158 159 158 163 174 161 149 117 48 174 168 6 18 17 35 74 351 14 30 59 58 57 274 67 34 27 37 359 341 6 338 158 185 218 236 196 258 96 173 224 311 0 353 348 346
164 166 170 146 158 171 168 18 353 227 88 59 2 356 67 34 36 353 44 66 82 69 65 82 58 21 350 299 295 332 219 115 141 218 245 95 262 135 179 195 341 347 342 345 344
171 178 186 187 182 175 190 324 247 27 195 75 21 25 74 22 45 24 40 45 25 214 55 122 51 20 9 301 202 345 304 285 248 249 327 154 227 57 142 91 6 339 338 341 338
156 173 185 197 189 186 190 262 61 48 72 87 158 73 69 358 51 31 60 65 49 9 73 359 162 11 356 34 331 11 356 8 313 318 314 161 246 110 143 64 356 342 341 340 339
152 153 162 167 168 165 175 35 62 129 113 155 139 119 99 89 33 75 47 44 19 5 19 327 145 122 62 37 319 41 19 353 280 253 260 77 121 156 176 343 338 340 347 348 341
139 143 141 153 157 147 78 87 90 61 110 166 115 342 109 41 162 78 70 38 52 13 317 83 267 72 63 213 56 9 86 259 327 312 321 274 277 21 182 336 340 347 349 346 342
142 114 141 143 139 77 80 86 126 97 67 3 126 124 88 108 52 92 89 127 56 19 6 299 275 129 221 21 358 201 202 66 290 274 298 312 7 99 94 3 344 347 348 343 346
153 109 155 148 83 46 98 106 131 116 68 78 84 82 89 126 102 111 113 56 169 299 355 31 302 271 53 112 256 312 322 276 293 67 255 291 305 135 62 5 347 346 350 347 349
133 101 154 163 142 109 128 93 78 117 55 90 94 39 75 107 145 114 137 133 48 129 80 134 210 296 177 167 170 247 178 146 38 271 247 284 2 172 328 339 353 351 346 347 342
163 122 121 150 109 132 146 132 112 72 92 85 117 106 132 109 34 151 153 152 85 96 104 165 279 272 294 323 0 241 218 209 232 259 315 255 298 226 337 342 346 346 345 342 341
183 120 148 155 140 126 100 125 137 144 89 119 104 109 148 133 161 160 143 156 159 157 31 299 276 266 270 279 249 269 260 228 224 247 255 338 289 321 347 339 345 338 340 342 342
182 145 116 82 125 126 136 166 151 140 166 172 170 129 101 128 344 204 175 205 186 159 204 47 232 288 273 194 245 270 257 249 244 258 260 275 288 81 330 329 336 340 338 342 338
185 152 140 120 141 174 150 157 168 138 69 83 134 124 111 88 109 104 93 88 115 162 162 226 227 308 275 278 301 263 248 206 198 223 256 267 1 341 324 337 335 331 343 337 335
Wind_Speed_850mb
12 12 15 18 22 24 22 24 30 35 39 35 38 40 38 33 30 26 32 27 26 23 21 20 17 24 31 30 23 17 10 17 10 9 16 6 14 38 45 60 66 38 37 26 29
11 11 14 17 22 24 25 31 37 41 41 41 38 34 34 39 37 42 30 24 22 21 20 22 24 21 19 15 14 14 17 13 14 22 27 32 37 24 27 41 45 43 37 33 34
10 12 14 19 24 26 31 37 39 37 34 26 17 13 11 11 22 24 24 22 21 20 20 19 24 22 28 24 16 17 13 27 40 52 55 60 55 15 9 32 34 34 32 33 40
10 13 14 24 28 31 36 39 35 30 22 18 18 17 10 8 8 14 19 20 20 20 19 18 13 13 14 17 16 20 24 23 22 23 24 33 35 58 49 30 26 28 30 35 43
8 11 21 31 32 36 40 38 33 27 26 25 25 28 28 30 18 14 17 17 17 15 17 21 21 18 16 28 52 40 36 44 53 55 52 51 44 41 40 26 25 28 33 39 41
12 17 29 35 36 39 40 36 30 32 30 33 27 21 22 43 19 18 20 19 17 20 25 21 20 30 25 19 18 45 64 54 35 33 29 40 32 11 23 19 25 30 34 36 40
19 27 36 38 40 42 39 31 29 36 38 26 18 37 46 22 20 17 18 20 23 22 22 25 17 10 21 45 56 60 40 36 12 12 43 17 31 20 14 19 27 28 28 31 36
29 35 38 40 43 42 33 36 47 28 25 22 26 26 20 24 19 15 19 18 19 17 26 24 34 31 15 48 25 14 15 10 20 12 3 18 10 13 11 16 24 25 28 30 36
33 36 41 46 45 45 48 37 30 20 17 13 13 18 12 15 21 17 12 18 23 25 23 18 30 28 29 19 11 9 2 8 12 17 9 8 19 17 12 15 22 24 28 29 31
36 42 49 51 47 40 33 29 18 14 12 10 12 13 14 13 19 15 12 11 6 7 7 14 13 14 9 9 4 5 8 8 5 12 20 22 25 21 13 14 21 23 28 34 37
41 47 49 43 40 39 37 28 16 22 56 26 22 20 12 17 29 17 9 12 9 15 10 18 15 17 13 12 7 6 7 9 8 7 6 14 23 19 13 14 18 22 27 32 37
42 45 43 40 42 33 17 9 13 26 28 35 32 22 32 12 10 32 13 5 9 9 3 12 23 11 7 7 7 8 6 5 7 8 4 18 17 15 10 10 14 18 24 30 38
40 40 39 39 33 10 15 31 28 18 11 16 26 24 17 24 18 29 17 12 22 27 25 20 10 11 10 14 7 3 4 4 12 12 6 19 13 21 15 8 6 13 18 26 36
37 35 36 32 20 19 37 21 7 6 5 17 15 17 20 5 11 31 19 7 8 10 10 15 11 8 6 9 9 9 3 17 12 17 6 17 5 23 18 9 1 11 22 30 34
35 34 32 24 12 21 20 9 4 4 2 12 9 8 27 14 5 26 26 21 14 8 6 7 8 14 11 7 10 9 9 1 12 12 8 15 10 12 17 12 6 17 25 32 34
33 33 29 14 16 23 17 2 4 7 7 4 8 11 3 20 11 15 12 18 9 11 25 9 3 6 10 8 5 11 3 8 9 7 9 9 8 13 11 6 6 18 27 34 36
29 29 26 16 8 22 13 7 6 5 1 4 6 6 10 15 10 20 13 23 9 1 6 4 7 4 10 7 5 21 10 5 5 6 8 9 10 8 15 6 12 22 32 35 34
24 24 23 17 13 20 10 5 4 3 1 3 2 8 7 12 9 11 4 7 19 8 6 7 6 12 18 9 8 11 11 8 13 13 16 6 8 9 13 7 9 20 29 31 35
23 23 20 18 21 19 4 1 5 4 5 9 5 2 4 3 3 4 12 6 10 17 7 6 3 3 8 12 7 6 5 6 11 4 8 2 7 10 11 2 16 26 35 35 35
23 20 18 20 21 15 3 7 4 2 3 2 1 3 2 5 2 2 3 4 3 9 7 3 4 3 2 4 14 6 4 5 1 13 17 8 8 4 15 9 22 31 36 37 36
23 10 16 23 19 6 4 7 6 3 2 3 4 6 5 3 4 3 4 4 1 2 4 1 3 5 4 2 5 3 2 5 5 6 9 14 9 11 9 11 20 31 33 35 33
7 5 22 24 6 7 5 7 7 6 5 4 6 6 3 3 4 4 3 4 2 1 2 3 3 7 1 6 4 2 2 4 6 3 6 8 7 19 11 16 19 31 33 35 26
8 10 15 12 5 6 5 6 6 5 4 3 5 4 3 4 2 2 4 4 1 2 2 3 2 7 8 7 6 6 5 2 2 4 20 8 9 13 8 18 28 34 37 32 32
8 7 5 3 11 14 11 8 7 5 5 7 7 5 5 4 5 7 6 3 1 2 6 1 4 8 11 9 4 8 10 13 11 8 6 21 28 3 17 21 34 31 33 29 34
7 5 9 7 6 13 7 7 11 7 4 3 5 2 4 5 4 5 5 6 3 3 1 1 6 6 17 13 9 14 17 18 25 22 14 9 15 23 12 24 29 28 25 29 38
9 11 11 9 17 18 1 7 10 7 3 4 4 7 4 2 3 4 10 9 2 6 2 1 2 5 8 2 8 13 20 21 23 25 29 31 26 5 16 23 30 31 22 33 36
10 17 10 5 9 6 6 11 12 21 6 5 11 9 7 4 7 12 10 11 9 4 6 3 2 5 7 4 17 14 11 20 8 11 11 13 10 10 19 28 29 19 20 32 33
Wind_Direction_850mb
95 102 99 107 110 107 105 115 121 118 115 110 104 100 94 90 85 81 71 74 68 66 66 63 78 89 74 68 64 73 108 90 80 98 130 124 85 69 74 73 66 71 65 47 33
101 112 107 113 113 109 110 116 119 120 117 112 106 101 99 89 79 68 68 68 58 63 70 81 79 80 76 52 45 72 87 57 48 94 107 85 86 91 87 64 61 59 53 47 40
104 122 121 128 126 124 119 120 122 124 119 116 105 101 114 102 68 34 64 63 62 65 72 85 89 81 73 68 44 32 82 98 83 102 100 92 74 90 77 53 51 52 43 41 41
110 128 132 140 138 127 125 124 121 119 110 96 100 90 102 120 70 41 62 65 68 64 75 83 87 75 79 74 72 99 58 94 101 107 97 79 91 74 73 84 68 61 55 47 40
106 129 144 144 139 132 131 125 119 110 99 101 105 102 91 87 66 65 66 69 67 69 98 95 81 83 93 105 88 88 88 89 106 99 96 102 85 85 70 73 70 64 57 49 43
105 134 140 142 140 133 132 127 115 110 106 100 91 93 81 76 60 74 73 71 75 76 80 91 89 101 78 45 45 115 111 115 110 101 101 96 69 69 63 79 76 64 54 47 40
110 130 138 140 136 131 127 122 119 115 112 101 70 82 78 57 67 83 80 77 75 81 84 83 116 87 95 95 118 121 115 123 130 110 134 93 54 77 83 82 68 62 53 44 37
117 128 132 133 132 127 124 122 122 108 95 90 73 76 76 60 67 101 92 78 83 74 69 100 97 97 85 125 142 142 160 159 59 175 311 201 118 99 91 89 70 58 48 40 31
122 128 129 130 129 129 126 122 119 105 88 91 70 84 68 60 70 79 97 99 90 76 73 79 94 94 129 158 156 182 129 126 134 22 198 218 143 136 121 100 75 57 46 36 26
126 130 132 128 126 129 125 120 104 106 94 55 69 92 50 30 45 52 92 124 103 87 64 47 69 115 88 235 322 137 156 110 165 61 85 112 128 131 118 91 69 52 40 29 20
131 134 136 130 129 124 122 118 99 75 72 73 70 75 59 72 47 44 114 95 77 62 67 36 78 59 15 355 7 101 121 129 126 121 78 124 140 139 119 85 60 42 28 19 13
139 140 140 139 134 131 136 136 139 126 81 68 65 60 46 64 61 50 98 59 37 80 42 109 59 18 14 31 141 135 127 90 118 132 220 158 159 156 157 88 56 30 21 10 1
146 146 146 146 147 130 145 130 122 113 89 38 41 36 29 51 46 7 41 57 66 65 66 75 24 1 30 62 139 128 319 205 312 149 90 162 200 189 176 161 50 26 9 1 360
154 154 154 157 151 120 132 130 119 143 125 14 6 23 4 66 57 21 28 56 61 92 67 66 38 39 68 69 331 249 62 300 202 190 318 204 304 192 179 172 294 354 357 354 349
158 159 158 163 174 161 149 117 48 174 168 6 18 17 35 74 351 14 30 59 58 57 274 67 34 27 37 359 341 6 338 158 185 218 236 196 258 96 173 224 311 0 353 348 346
164 166 170 146 158 171 168 18 353 227 88 59 2 356 67 34 36 353 44 66 82 69 65 82 58 21 350 299 295 332 219 115 141 218 245 95 262 135 179 195 341 347 342 345 344
171 178 186 187 182 175 190 324 247 27 195 75 21 25 74 22 45 24 40 45 25 214 55 122 51 20 9 301 202 345 304 285 248 249 327 154 227 57 142 91 6 339 338 341 338
156 173 185 197 189 186 190 262 61 48 72 87 158 73 69 358 51 31 60 65 49 9 73 359 162 11 356 34 331 11 356 8 313 318 314 161 246 110 143 64 356 342 341 340 339
152 153 162 167 168 165 175 35 62 129 113 155 139 119 99 89 33 75 47 44 19 5 19 327 145 122 62 37 319 41 19 353 280 253 260 77 121 156 176 343 338 340 347 348 341
139 143 141 153 157 147 78 87 90 61 110 166 115 342 109 41 162 78 70 38 52 13 317 83 267 72 63 213 56 9 86 259 327 312 321 274 277 21 182 336 340 347 349 346 342
142 114 141 143 139 77 80 86 126 97 67 3 126 124 88 108 52 92 89 127 56 19 6 299 275 129 221 21 358 201 202 66 290 274 298 312 7 99 94 3 344 347 348 343 346
153 109 155 148 83 46 98 106 131 116 68 78 84 82 89 126 102 111 113 56 169 299 355 31 302 271 53 112 256 312 322 276 293 67 255 291 305 135 62 5 347 346 350 347 349
133 101 154 163 142 109 128 93 78 117 55 90 94 39 75 107 145 114 137 133 48 129 80 134 210 296 177 167 170 247 178 146 38 271 247 284 2 172 328 339 353 351 346 347 342
163 122 121 150 109 132 146 132 112 72 92 85 117 106 132 109 34 151 153 152 85 96 104 165 279 272 294 323 0 241 218 209 232 259 315 255 298 226 337 342 346 346 345 342 341
183 120 148 155 140 126 100 125 137 144 89 119 104 109 148 133 161 160 143 156 159 157 31 299 276 266 270 279 249 269 260 228 224 247 255 338 289 321 347 339 345 338 340 342 342
182 145 116 82 125 126 136 166 151 140 166 172 170 129 101 128 344 204 175 205 186 159 204 47 232 288 273 194 245 270 257 249 244 258 260 275 288 81 330 329 336 340 338 342 338
185 152 140 120 141 174 150 157 168 138 69 83 134 124 111 88 109 104 93 88 115 162 162 226 227 308 275 278 301 263 248 206 198 223 256 267 1 341 324 337 335 331 343 337 335